E1570 Weather Reports


time (UTC)temp
F
wind
direction
speed
knots
gust
knots
rain 1hr
in
rain 24hr
in
rain mn
in
humidity
%
barometer
mb
20260502183050 53 195 5.2 9.6 0.00 0.00 0.00 43 1014.3
20260502181554 53 206 6.1 10.4 0.00 0.00 0.00 42 1014.5
20260502163101 54 179 2.6 8.7 0.00 0.00 0.00 40 1014.9
20260502161557 53 185 6.1 13.9 0.00 0.00 0.00 40 1015.2
20260502151556 53 87 2.6 9.6 0.00 0.00 0.00 44 1015.2
20260502150109 52 229 3.5 8.7 0.00 0.00 0.00 42 1015.4
20260502130107 45 148 0.9 2.6 0.00 0.00 0.00 69 1015.8
20260502123100 44 172 0.0 1.7 0.00 0.00 0.00 72 1015.7
20260502121558 44 0 0.0 1.7 0.00 0.00 0.00 74 1015.9
20260502114558 42 0 0.0 0.0 0.00 0.00 0.00 80 1015.7
20260502113056 41 0 0.0 0.0 0.00 0.00 0.00 83 1015.7
20260502111555 41 0 0.0 0.0 0.00 0.00 0.00 82 1015.6
20260502110053 41 0 0.0 0.0 0.00 0.00 0.00 82 1015.6
20260502104551 41 0 0.0 0.0 0.00 0.00 0.00 81 1015.4
20260502103054 41 0 0.0 0.9 0.00 0.00 0.00 80 1015.4
20260502101553 42 175 0.0 0.9 0.00 0.00 0.00 78 1015.6
20260502080106 47 152 1.7 4.3 0.00 0.00 0.00 63 1015.3
20260502070052 48 149 0.0 2.6 0.00 0.00 0.00 58 1015.1
20260502064559 48 128 0.9 6.1 0.00 0.00 0.00 58 1015.0
20260502063112 49 201 2.6 5.2 0.00 0.00 0.00 57 1015.3
20260502061552 49 170 0.0 2.6 0.00 0.00 0.00 57 1015.6
20260502060058 49 229 0.9 5.2 0.00 0.00 0.00 56 1015.6
20260502054552 49 224 3.5 7.0 0.00 0.00 0.00 59 1015.4
20260502053059 50 181 2.6 6.1 0.00 0.00 0.00 65 1015.3
20260502051551 50 210 1.7 7.0 0.00 0.00 0.00 64 1015.3
20260502050054 50 227 5.2 10.4 0.00 0.00 0.00 66 1015.3
20260502044552 51 189 4.3 8.7 0.00 0.00 0.00 67 1015.4
20260502043055 51 146 3.5 7.0 0.00 0.00 0.00 66 1015.3
20260502041556 51 102 0.9 4.3 0.00 0.00 0.00 66 1015.2
20260502040101 51 115 0.0 5.2 0.00 0.00 0.00 65 1015.2
20260502034556 52 82 1.7 4.3 0.00 0.00 0.00 64 1015.3
20260502033053 52 193 0.9 4.3 0.00 0.00 0.00 64 1015.4
20260502031555 52 103 1.7 5.2 0.00 0.00 0.00 62 1015.4
20260502030052 52 181 1.7 6.1 0.00 0.00 0.00 61 1015.5
20260502024603 52 212 3.5 8.7 0.00 0.00 0.00 61 1015.3
20260502023107 53 241 3.5 9.6 0.00 0.00 0.00 61 1015.0
20260502021556 53 179 4.3 8.7 0.00 0.00 0.00 62 1014.7
20260502020058 54 197 3.5 12.2 0.00 0.00 0.00 61 1014.4
20260502014557 54 115 2.6 7.8 0.00 0.00 0.00 62 1013.9
20260502013055 54 199 2.6 13.0 0.00 0.00 0.00 63 1013.7
20260502011558 55 170 1.7 7.0 0.00 0.00 0.00 64 1013.6
20260502010054 55 226 2.6 9.6 0.00 0.00 0.00 63 1013.4
20260502004552 56 207 0.9 6.1 0.00 0.00 0.00 63 1012.9
20260502003056 56 156 2.6 7.8 0.00 0.00 0.00 60 1012.8
20260502001555 57 285 1.7 7.0 0.00 0.00 0.00 59 1012.2
20260502000100 58 238 3.5 12.2 0.00 0.00 0.00 56 1011.7
20260501234559 59 191 8.7 14.8 0.00 0.00 0.00 53 1011.2
20260501233054 61 231 7.0 13.9 0.00 0.00 0.00 47 1010.9
20260501231616 65 154 3.5 7.0 0.00 0.00 0.00 35 1010.3
20260501230059 67 134 3.5 6.1 0.00 0.00 0.00 32 1010.2
20260501224602 67 104 3.5 8.7 0.00 0.00 0.00 32 1010.2
20260501223053 68 185 1.7 14.8 0.00 0.00 0.00 30 1010.0
20260501221606 69 168 4.3 12.2 0.00 0.00 0.00 28 1009.9
20260501220058 69 66 2.6 20.9 0.00 0.00 0.00 29 1010.0
20260501214553 68 31 3.5 13.9 0.00 0.00 0.00 29 1010.0
20260501213055 68 165 2.6 13.9 0.00 0.00 0.00 29 1010.1
20260501211608 70 227 5.2 12.2 0.00 0.00 0.00 26 1010.0
20260501210054 71 109 2.6 13.0 0.00 0.00 0.00 26 1010.0
20260501204552 70 139 3.5 11.3 0.00 0.00 0.00 25 1009.9
20260501203056 71 172 3.5 10.4 0.00 0.00 0.00 24 1009.8
20260501201602 71 239 2.6 13.0 0.00 0.00 0.00 25 1009.7
20260501200055 71 216 3.5 9.6 0.00 0.00 0.00 22 1009.8
20260501194609 71 171 1.7 16.5 0.00 0.00 0.00 22 1009.9
20260501193054 71 137 3.5 13.0 0.00 0.00 0.00 23 1009.8
20260501191555 71 75 1.7 11.3 0.00 0.00 0.00 24 1010.1
20260501190055 71 11 7.8 14.8 0.00 0.00 0.00 24 1010.0
20260501184553 69 271 3.5 7.8 0.00 0.00 0.00 33 1010.4